[[{"header":{"parameterUnit":"m.s-1","parameterCategory":1,"la1":30.2991,"la2":30.254,"lo1":-89.0895,"lo2":-89.0444,"dy":0.0017,"dx":0.0017,"nx":28,"ny":28,"refTime":"2025-02-25T09:00:00:Z","depth":0,"parameterNumber":2,"parameterNumberName":"U-component_of_WINDS"},"data":[0,0,0,0,0,0,0,0,0,0,0,0,0,0,0,0,0,0,0,0,0,0,0,0,0,0,0,0,0,0,0,0,0,0,0,0,0,0,0,0,0,0,0,0,0,0,0,0,0,0,0,0,0,0,0,0,0,0,1.1457,1.1456,0,1.141,1.141,1.1409,1.1325,1.1323,1.1322,1.132,1.1276,1.1276,1.1277,0,0,0,0,0,0,0,0,0,0,0,0,0,1.1475,1.1475,1.1457,1.1456,1.1456,1.141,1.141,1.1409,1.1325,1.1323,1.1321,1.1319,1.1276,1.1276,1.1277,0,0,0,0,0,0,0,0,0,0,0,0,0,1.1452,1.1476,1.1457,1.1408,1.1403,1.1411,1.141,1.1409,1.1326,1.1323,1.1321,1.1318,1.1276,1.1276,1.1277,1.1329,0,0,1.1278,1.1279,0,0,0,0,0,0,0,0,1.1454,1.1452,1.1416,1.1412,1.1406,1.1371,1.14,1.1382,1.1326,1.1355,1.132,1.1317,1.131,1.1307,1.1304,1.1327,1.1325,1.1278,1.1279,1.1279,1.1279,0,0,0,0,0,0,0,1.1455,1.1453,1.1438,1.1416,1.141,1.139,1.1384,1.1396,1.1347,1.1353,1.1346,1.1342,1.1307,1.1304,1.1302,1.1324,1.1278,1.1279,1.1279,1.1279,1.1387,1.139,0,0,0,0,0,0,1.1464,1.1455,1.144,1.1437,1.1424,1.1391,1.1384,1.1385,1.1346,1.1338,1.1344,1.1338,1.1304,1.1302,1.1301,1.1359,1.1279,1.1279,1.128,1.1385,1.1388,1.1391,0,0,0,0,0,0,1.1464,1.1463,1.1442,1.1444,1.144,1.1393,1.1394,1.1385,1.1382,1.134,1.1331,1.135,1.1302,1.13,1.1322,1.1356,1.128,1.128,1.1382,1.1386,1.1389,1.1477,0,0,0,0,0,0,1.1465,1.1464,1.1483,1.1445,1.144,1.1464,1.1396,1.1386,1.1383,1.1375,1.1343,1.1336,1.13,1.1322,1.1323,1.1356,1.1281,1.1379,1.1384,1.1388,1.1471,1.1483,1.1494,0,0,0,0,0,1.1466,1.151,1.1484,1.1483,1.1462,1.1466,1.1463,1.142,1.1386,1.1405,1.1378,1.1337,1.1352,1.1325,1.1325,1.1359,1.1376,1.1382,1.1388,1.1465,1.1481,1.1493,0,0,0,0,0,0,1.1553,1.1504,1.1475,1.1507,1.1491,1.1451,1.1474,1.1438,1.1432,1.1425,1.1373,1.1366,1.1396,1.1379,1.135,1.1407,1.1358,1.1364,1.1417,1.1431,1.1442,1.1446,1.1281,0,0,0,0,0,1.1576,1.1582,1.1539,1.1572,1.1565,1.1521,1.1521,1.1489,1.1471,1.1464,1.1439,1.1423,1.1425,1.1427,1.1426,1.1468,1.146,1.1491,1.1503,1.1512,1.1518,1.154,1.1553,1.141,1.141,1.141,0,0,1.1624,1.1597,1.1605,1.1589,1.1572,1.1581,1.1516,1.1527,1.1533,1.1466,1.1485,1.1466,1.1446,1.1478,1.1491,1.1466,1.1556,1.152,1.1528,1.1528,1.1547,1.156,1.1573,1.1414,1.1413,1.1412,0,0,1.1715,1.1695,1.172,1.1705,1.1681,1.1651,1.1658,1.1623,1.1607,1.1626,1.1576,1.1582,1.1586,1.1573,1.1567,1.1653,1.1616,1.1654,1.1715,1.1737,1.1748,1.1758,1.1789,1.18,1.166,1.1661,1.1661,0,1.1777,1.1786,1.1738,1.1752,1.1747,1.1686,1.1711,1.1699,1.1677,1.1675,1.1646,1.1649,1.1631,1.166,1.1681,1.1678,1.1684,1.1658,1.175,1.1759,1.1768,1.1797,1.1808,1.1666,1.1665,1.1665,1.1664,0,1.1865,1.1872,1.1895,1.1874,1.1871,1.1891,1.1847,1.185,1.1819,1.1793,1.1812,1.1788,1.1781,1.1786,1.1756,1.181,1.1795,1.1759,1.1709,1.1787,1.1813,1.1824,1.1673,1.1671,1.1669,1.1668,0,0,1.201,1.196,1.197,1.1959,1.1928,1.1933,1.1951,1.1943,1.1947,1.1934,1.1948,1.1952,1.1918,1.1911,1.1879,1.1898,1.1968,1.1859,1.1858,1.1881,1.2027,1.2055,1.2069,1.1942,1.1944,1.1946,1.2029,0,1.2094,1.212,1.2077,1.2114,1.212,1.2062,1.2077,1.206,1.2036,1.2039,1.2012,1.2016,1.1971,1.1967,1.1983,1.1956,1.1997,1.1949,1.1956,1.1957,1.1963,1.2082,1.2112,1.2192,1.2039,1.2041,1.2042,0,1.2196,1.2187,1.2224,1.219,1.2191,1.2205,1.2194,1.2197,1.2177,1.2158,1.2151,1.2113,1.2128,1.2079,1.2101,1.2069,1.207,1.2057,1.2059,1.2059,1.2005,1.2086,1.2216,1.2229,1.2058,1.2057,1.2055,0,1.2299,1.2295,1.2317,1.2309,1.227,1.2282,1.2267,1.2244,1.2242,1.2233,1.2231,1.2225,1.2221,1.2218,1.2179,1.2146,1.2205,1.2153,1.2191,1.2192,1.2207,1.2206,1.2339,1.2206,1.2206,1.2206,1.2205,0,1.2398,1.2423,1.2362,1.2376,1.2402,1.2353,1.2381,1.2359,1.234,1.2349,1.2298,1.2308,1.2255,1.226,1.223,1.2252,1.2251,1.2237,1.2229,1.2242,1.2244,1.2242,1.2235,1.2209,1.2208,1.2208,1.2207,0,1.2517,1.2477,1.2497,1.2458,1.2449,1.2471,1.2438,1.2449,1.2421,1.2433,1.2433,1.2391,1.2393,1.2354,1.2349,1.2328,1.2365,1.2347,1.2372,1.2366,1.2407,1.2404,1.2544,1.256,1.2416,1.2417,1.2419,0,1.2584,1.2601,1.2564,1.2566,1.2552,1.2556,1.2553,1.2506,1.2505,1.2483,1.2498,1.2496,1.2491,1.2498,1.2468,1.2464,1.2445,1.2494,1.2444,1.2457,1.2447,1.2446,1.2448,1.2505,1.2507,1.2509,1.251,0,1.2705,1.2685,1.2682,1.2673,1.2671,1.2661,1.2649,1.2654,1.2602,1.2604,1.2605,1.2602,1.2596,1.2595,1.2585,1.257,1.2532,1.2526,1.2534,1.2548,1.2562,1.2555,1.2401,1.2523,1.2522,1.2521,1.252,1.2519,1.28,1.2813,1.2789,1.2788,1.2773,1.2763,1.2771,1.2744,1.2744,1.2735,1.2707,1.2713,1.2693,1.2675,1.2664,1.2669,1.2645,1.2657,1.266,1.2664,1.2672,1.2561,1.2667,1.2666,1.2666,1.2665,1.2665,0,1.292,1.2901,1.29,1.2884,1.2884,1.2846,1.283,1.2833,1.2838,1.2822,1.2818,1.282,1.2819,1.2788,1.2783,1.2793,1.2775,1.2793,1.2792,1.279,1.2694,1.2687,1.2808,1.2807,1.2807,1.2807,1.2807,1.2807,1.2982,1.3002,1.2978,1.2991,1.2972,1.2977,1.2971,1.2961,1.2948,1.2952,1.295,1.2929,1.2907,1.29,1.2897,1.2888,1.2889,1.2914,1.2899,1.281,1.2796,1.2783,1.2776,1.2914,1.2914,1.2994,1.2995,1.2995]},{"header":{"parameterUnit":"m.s-1","parameterCategory":1,"la1":30.2991,"la2":30.254,"lo1":-89.0895,"lo2":-89.0444,"dy":0.0017,"dx":0.0017,"nx":28,"ny":28,"refTime":"2025-02-25T09:00:00:Z","depth":0,"parameterNumber":3,"parameterNumberName":"V-component_of_WINDS"},"data":[0,0,0,0,0,0,0,0,0,0,0,0,0,0,0,0,0,0,0,0,0,0,0,0,0,0,0,0,0,0,0,0,0,0,0,0,0,0,0,0,0,0,0,0,0,0,0,0,0,0,0,0,0,0,0,0,0,0,-0.254,-0.254,0,-0.257,-0.2571,-0.2571,-0.2586,-0.2586,-0.2586,-0.2586,-0.262,-0.2621,-0.2622,0,0,0,0,0,0,0,0,0,0,0,0,0,-0.2497,-0.2498,-0.254,-0.254,-0.2541,-0.257,-0.2571,-0.2571,-0.2586,-0.2586,-0.2586,-0.2586,-0.262,-0.2621,-0.2622,0,0,0,0,0,0,0,0,0,0,0,0,0,-0.2521,-0.2498,-0.254,-0.2551,-0.2553,-0.257,-0.2571,-0.2571,-0.2586,-0.2586,-0.2586,-0.2586,-0.2619,-0.2621,-0.2622,-0.2631,0,0,-0.2626,-0.2627,0,0,0,0,0,0,0,0,-0.2519,-0.2522,-0.2549,-0.2551,-0.2552,-0.2574,-0.2568,-0.2591,-0.2586,-0.2574,-0.2586,-0.2586,-0.2605,-0.2608,-0.2613,-0.2633,-0.2634,-0.2626,-0.2627,-0.2628,-0.2628,0,0,0,0,0,0,0,-0.2518,-0.2521,-0.2552,-0.255,-0.2552,-0.2556,-0.256,-0.2573,-0.2589,-0.2575,-0.2576,-0.2579,-0.2606,-0.2612,-0.2614,-0.2635,-0.2626,-0.2628,-0.2628,-0.2629,-0.2664,-0.2664,0,0,0,0,0,0,-0.2514,-0.2519,-0.2551,-0.2553,-0.2535,-0.2557,-0.2561,-0.2567,-0.2589,-0.2592,-0.2579,-0.258,-0.261,-0.2613,-0.2616,-0.2628,-0.2628,-0.2629,-0.263,-0.2664,-0.2664,-0.2664,0,0,0,0,0,0,-0.2513,-0.2516,-0.255,-0.2537,-0.2541,-0.2558,-0.2565,-0.2568,-0.2574,-0.2592,-0.2596,-0.2582,-0.261,-0.2614,-0.2627,-0.263,-0.263,-0.2631,-0.2664,-0.2664,-0.2664,-0.2653,0,0,0,0,0,0,-0.2511,-0.2516,-0.2519,-0.2536,-0.2542,-0.256,-0.2565,-0.2569,-0.2576,-0.2577,-0.2596,-0.2599,-0.261,-0.2625,-0.2629,-0.2632,-0.2632,-0.2664,-0.2664,-0.2664,-0.2653,-0.2653,-0.2652,0,0,0,0,0,-0.251,-0.2515,-0.2519,-0.2522,-0.2545,-0.256,-0.2563,-0.2575,-0.2576,-0.258,-0.2592,-0.2599,-0.2629,-0.2626,-0.263,-0.2634,-0.2664,-0.2664,-0.2664,-0.2653,-0.2653,-0.2652,0,0,0,0,0,0,-0.2497,-0.2517,-0.2522,-0.2532,-0.2544,-0.2562,-0.2567,-0.2574,-0.2586,-0.2586,-0.2601,-0.2605,-0.2618,-0.2627,-0.2624,-0.2644,-0.2647,-0.2648,-0.2638,-0.2637,-0.2637,-0.2634,-0.2633,0,0,0,0,0,-0.2496,-0.2505,-0.2522,-0.253,-0.2535,-0.255,-0.2557,-0.2565,-0.2578,-0.2583,-0.2596,-0.261,-0.2622,-0.263,-0.2643,-0.2655,-0.266,-0.2659,-0.2659,-0.2658,-0.2659,-0.2667,-0.2668,-0.2665,-0.2665,-0.2665,0,0,-0.2493,-0.2505,-0.251,-0.2528,-0.2538,-0.2548,-0.2554,-0.2565,-0.2573,-0.2585,-0.2599,-0.2609,-0.2625,-0.2638,-0.2644,-0.2646,-0.2661,-0.2659,-0.2658,-0.2659,-0.2668,-0.2668,-0.2668,-0.2665,-0.2665,-0.2665,0,0,-0.2492,-0.2502,-0.251,-0.252,-0.2535,-0.2545,-0.2546,-0.2564,-0.2571,-0.2584,-0.2594,-0.2605,-0.2626,-0.2637,-0.2645,-0.265,-0.2658,-0.2654,-0.2652,-0.266,-0.266,-0.266,-0.2663,-0.2663,-0.2655,-0.2655,-0.2655,0,-0.2487,-0.2501,-0.2513,-0.2523,-0.2531,-0.2542,-0.2551,-0.2561,-0.2579,-0.2585,-0.2587,-0.2614,-0.2626,-0.2642,-0.2643,-0.2649,-0.2653,-0.2652,-0.2659,-0.2659,-0.266,-0.2662,-0.2663,-0.2654,-0.2654,-0.2654,-0.2654,0,-0.2494,-0.2505,-0.2509,-0.2526,-0.2535,-0.2544,-0.2558,-0.2566,-0.2573,-0.2584,-0.2598,-0.2612,-0.2628,-0.2633,-0.264,-0.2651,-0.2651,-0.2656,-0.2659,-0.2659,-0.2662,-0.2663,-0.2654,-0.2654,-0.2654,-0.2654,0,0,-0.2487,-0.251,-0.2512,-0.252,-0.2538,-0.2547,-0.2557,-0.2572,-0.2579,-0.2592,-0.2601,-0.2619,-0.2624,-0.2633,-0.2643,-0.2649,-0.2653,-0.2653,-0.2654,-0.2653,-0.2667,-0.2664,-0.2665,-0.2658,-0.2659,-0.2659,-0.2666,0,-0.2489,-0.2507,-0.2518,-0.2532,-0.2542,-0.2554,-0.2563,-0.2576,-0.2586,-0.2597,-0.2608,-0.2621,-0.2625,-0.2631,-0.2638,-0.2651,-0.2656,-0.2651,-0.2669,-0.2669,-0.2665,-0.2666,-0.2662,-0.2668,-0.2667,-0.2667,-0.2667,0,-0.2494,-0.2506,-0.2521,-0.2538,-0.2543,-0.2551,-0.2566,-0.2576,-0.2591,-0.2598,-0.2609,-0.2619,-0.2632,-0.2633,-0.2652,-0.2648,-0.2656,-0.2664,-0.2664,-0.2667,-0.2668,-0.2669,-0.267,-0.2671,-0.2669,-0.2669,-0.2668,0,-0.2488,-0.2508,-0.2519,-0.2526,-0.2547,-0.2552,-0.2561,-0.2576,-0.2585,-0.2598,-0.2604,-0.262,-0.2628,-0.264,-0.2654,-0.2654,-0.2672,-0.2674,-0.2679,-0.2678,-0.2682,-0.2682,-0.2685,-0.2687,-0.2687,-0.2686,-0.2686,0,-0.2489,-0.2498,-0.2517,-0.2524,-0.2535,-0.2548,-0.2559,-0.2569,-0.2582,-0.2592,-0.2604,-0.2613,-0.263,-0.2643,-0.2654,-0.2668,-0.2672,-0.2679,-0.2681,-0.2678,-0.2677,-0.2683,-0.2684,-0.2687,-0.2687,-0.2687,-0.2687,0,-0.2484,-0.2497,-0.251,-0.2528,-0.2533,-0.2541,-0.2557,-0.2565,-0.2576,-0.2589,-0.2593,-0.261,-0.2625,-0.264,-0.266,-0.2668,-0.2682,-0.2686,-0.2677,-0.2678,-0.2682,-0.2682,-0.269,-0.2693,-0.2692,-0.2692,-0.2692,0,-0.2484,-0.2491,-0.251,-0.2518,-0.2526,-0.2538,-0.2547,-0.2561,-0.257,-0.2588,-0.2594,-0.261,-0.2623,-0.2647,-0.2662,-0.2678,-0.2683,-0.2685,-0.2685,-0.2682,-0.2684,-0.2683,-0.2685,-0.2684,-0.2684,-0.2684,-0.2684,0,-0.2484,-0.249,-0.2502,-0.2516,-0.2526,-0.2538,-0.2551,-0.2556,-0.2573,-0.2583,-0.2598,-0.2608,-0.2629,-0.2645,-0.2663,-0.2674,-0.2682,-0.2684,-0.2686,-0.2682,-0.2677,-0.2681,-0.2676,-0.2684,-0.2684,-0.2684,-0.2684,-0.2684,-0.2482,-0.2489,-0.2504,-0.2517,-0.2528,-0.2539,-0.2548,-0.256,-0.2572,-0.259,-0.2598,-0.2613,-0.263,-0.2654,-0.2665,-0.2678,-0.2681,-0.2683,-0.2684,-0.2685,-0.2684,-0.2675,-0.2682,-0.2682,-0.2682,-0.2682,-0.2682,0,-0.2483,-0.2493,-0.2505,-0.2522,-0.2532,-0.2538,-0.2553,-0.2562,-0.2575,-0.2589,-0.2602,-0.262,-0.2636,-0.2652,-0.267,-0.2677,-0.2682,-0.2681,-0.2681,-0.2684,-0.2681,-0.2678,-0.2677,-0.2677,-0.2677,-0.2677,-0.2677,-0.2677,-0.2484,-0.2497,-0.2505,-0.2523,-0.2534,-0.2548,-0.2556,-0.2568,-0.2579,-0.2598,-0.2611,-0.2622,-0.2637,-0.2656,-0.2671,-0.2676,-0.2682,-0.2681,-0.2686,-0.2684,-0.2684,-0.2684,-0.2681,-0.2682,-0.2682,-0.2688,-0.2688,-0.2688]}]]